Volver al catálogo

STARLINK-4580

ActivoComunicacionesVLEO
NORAD 53579·PAYLOAD·🇺🇸 United States

Lanzado Aug 19, 2022 desde Cape Canaveral Space Force Station

Loading…

Próximos Pases (próximas 24 horas)

TLE

ActualizadoSource: CelesTrak SupGP

Época: Sep 14, 2026, 21:26 UTC

1 53579C 22101BE  26257.89354167  .00046490  00000+0  13741-2 0  2577
2 53579  53.1562 270.0247 0001077 100.8331 110.6808 15.34355340    14

Sigue STARLINK-4580 en tiempo real con AllMySat

Download on the App Store